EDT,Max TemperatureF,Mean TemperatureF,Min TemperatureF,Max Dew PointF,MeanDew PointF,Min DewpointF,Max Humidity, Mean Humidity, Min Humidity, Max Sea Level PressureIn, Mean Sea Level PressureIn, Min Sea Level PressureIn, Max VisibilityMiles, Mean VisibilityMiles, Min VisibilityMiles, Max Wind SpeedMPH, Mean Wind SpeedMPH, Max Gust SpeedMPH,PrecipitationIn, CloudCover, Events, WindDirDegrees
2012-6-1,81,76,73,75,73,70,100,90,74,29.96,29.90,29.85,10,7,1,15,7,26,0.33,6,Rain-Thunderstorm,220
2012-6-2,84,80,75,75,72,69,100,76,59,29.99,29.93,29.88,10,10,10,15,6,21,0.00,2,,280
2012-6-3,87,81,75,72,70,64,87,68,46,30.05,30.00,29.95,10,10,10,13,4,,0.00,1,,280
2012-6-4,84,81,78,75,73,70,79,75,67,29.98,29.92,29.86,10,10,10,13,6,20,0.00,2,,283
2012-6-5,84,80,75,75,73,69,89,80,65,29.88,29.84,29.80,10,9,0,16,9,25,0.25,3,Fog-Rain,271
2012-6-6,84,78,73,77,74,67,94,86,69,29.92,29.88,29.84,10,8,2,24,10,32,0.28,6,Rain,209
2012-6-7,84,80,75,79,75,73,100,90,79,29.96,29.92,29.89,10,8,0,24,7,34,0.92,6,Fog-Rain,213
2012-6-8,82,78,73,76,74,71,100,89,79,30.00,29.94,29.88,10,8,1,22,7,,0.76,5,Rain-Thunderstorm,61
2012-6-9,87,80,73,78,74,71,91,81,67,30.02,29.96,29.89,10,10,10,20,11,20,0.01,3,Rain,177
2012-6-10,91,84,78,77,75,71,93,79,61,30.13,30.03,29.98,10,10,10,24,11,28,0.00,2,,158
2012-6-11,93,85,77,76,73,70,84,71,50,30.12,30.08,30.04,10,10,10,14,7,,0.00,1,,112
2012-6-12,88,83,78,75,72,70,79,70,59,30.08,30.02,29.95,10,10,10,12,8,,0.00,1,,204
2012-6-13,90,84,80,75,74,72,85,72,59,29.99,29.94,29.88,10,10,10,10,6,18,0.00,1,,308
2012-6-14,89,82,77,75,73,68,85,73,59,30.01,29.96,29.90,10,10,8,26,7,38,0.00,2,Rain-Thunderstorm,349
2012-6-15,89,82,75,77,73,71,90,80,55,30.04,29.99,29.95,10,8,0,25,10,34,0.37,3,Fog-Rain-Thunderstorm,73
2012-6-16,89,83,77,74,71,66,90,70,46,30.05,30.02,29.97,10,10,10,21,16,,0.00,0,,85
2012-6-17,89,82,75,71,68,66,85,65,48,30.07,30.00,29.93,10,10,10,20,14,,0.00,0,,93
2012-6-18,89,82,75,70,68,65,79,63,46,30.05,30.00,29.96,10,10,8,21,14,25,0.00,0,,105
2012-6-19,88,81,75,70,69,68,79,68,53,30.06,30.03,29.99,10,10,10,22,16,,0.00,0,,98
2012-6-20,86,80,77,77,74,70,100,84,72,30.04,29.98,29.94,10,10,7,22,17,33,0.06,4,Rain,97
2012-6-21,88,81,75,76,74,73,94,84,65,29.99,29.93,29.86,10,10,9,18,14,22,0.02,5,Rain-Thunderstorm,124
2012-6-22,87,81,75,76,75,73,96,87,67,29.91,29.87,29.83,10,8,2,14,10,18,0.56,5,Rain,150
2012-6-23,80,78,75,78,75,73,97,91,81,29.94,29.90,29.85,10,10,6,20,12,,0.22,5,Rain,138
2012-6-24,81,78,75,79,77,75,100,95,89,29.91,29.77,29.65,9,3,0,39,25,52,6.24,8,Fog-Rain-Thunderstorm,163
2012-6-25,84,80,75,79,76,73,100,87,74,29.69,29.65,29.60,10,8,0,33,23,47,2.21,7,Fog-Rain,212
2012-6-26,84,80,77,77,76,74,94,85,79,29.66,29.60,29.55,10,9,1,30,23,41,0.16,7,Rain,232
2012-6-27,84,80,75,75,73,71,94,82,67,30.01,29.82,29.63,10,10,5,20,11,28,0.02,6,Rain,327
2012-6-28,88,82,75,72,67,65,77,63,49,30.09,30.04,30.00,10,10,10,14,9,,0.00,2,,86
2012-6-29,86,80,77,72,70,68,81,69,58,30.05,30.00,29.95,10,10,10,12,5,,0.00,0,,277
2012-6-30,84,82,79,74,72,69,82,72,61,30.01,29.98,29.93,10,10,10,13,7,21,0.00,0,,279